Location: *
(55.6049°S, 142.1985°W)
Time: 01:05:59
(UTC+00:00)

CZ-4B DEB - Pass Details

Date: 12 May 2021
Orbit: 841 x 860 km, 99.1° (Epoch: 18 June)

Event Time Altitude Azimuth Distance (km) Brightness Sun altitude
Rises 14:52:35 0° 5° (N) 3,439 7.5 -19.6°
Reaches altitude 10° 14:55:00 10° 1° (N) 2,508 6.7 -19.2°
Maximum altitude 15:00:29 57° 282° (WNW) 1,015 4.3 -18.5°
Drops below altitude 10° 15:06:02 10° 203° (SSW) 2,525 6.4 -17.7°
Sets 15:08:29 0° 198° (SSW) 3,465 7.1 -17.3°
